Voltar ao catálogo

JILIN-1 GAOFEN 03D 55 XING

AtivoCiênciaSSO
NORAD 69099·PAYLOAD·🇨🇳 China
Este nome de satélite ainda não foi confirmado por fontes oficiais.

Lançado May 15, 2026 de Jiuquan Satellite Launch Center

Loading…

Próximas Passagens (próximas 24 horas)

TLE

AtualizadoSource: Space-Track

Época: Sep 14, 2026, 13:41 UTC

1 69099U 26106C   26257.57069150  .00005483  00000-0  32188-3 0  9998
2 69099  97.5051 338.0979 0012886 212.5273 147.5165 15.12064988 18482

Acompanhe JILIN-1 GAOFEN 03D 55 XING em tempo real com AllMySat

Download on the App Store